Weather History for Chattanooga, TN

Change the Weather History Date:

Saturday, October 29, 2011

  Actual Average Record
Temperature  
Mean Temperature 49 °F 57 °F  
Max Temperature 60 °F 69 °F 82 °F (1998)
Min Temperature 38 °F 46 °F 26 °F (1976)
Degree Days  
Heating Degree Days 16 8  
Month to date heating degree days 146 139  
Since 1 July heating degree days 149 154  
Cooling Degree Days 0 1  
Month to date cooling degree days 16 50  
Year to date cooling degree days 2113 1739  
Moisture  
Dew Point 35 °F    
Average Humidity 58    
Maximum Humidity 85    
Minimum Humidity 31    
Precipitation  
Precipitation T in 0.11 in 2.27 in (1918)
Month to date precipitation 2.70 3.05  
Year to date precipitation 50.12 42.35  
Snow  
Snow 0.00 in 0.00 in - ()
Month to date snowfall 0.0 0.0  
Since 1 July snowfall 0.0 0.0  
Since 1 September snowfall 0.0 0.0  
Snow Depth 0.00 in    
Sea Level Pressure  
Sea Level Pressure 30.13 in    
Wind  
Wind Speed 7 mph (NNW)    
Max Wind Speed 18 mph    
Max Gust Speed 24 mph    
Visibility 10 miles    
Events      
T = Trace of Precipitation, MM = Missing Value Source: NWS Daily Summary

Daily Weather History Graph

Daily Weather History Graph

Search for Another Location

Airport:

Trip Planner

Search our weather history database for the weather conditions in past years. The results will help you decide how hot, cold, wet, or windy it might be!

Date:

Astronomy

Oct. 29, 2011 Rise Set
Actual Time 7:58 AM EDT 6:49 PM EDT
Civil Twilight 7:32 AM EDT 7:15 PM EDT
Nautical Twilight 7:02 AM EDT 7:45 PM EDT
Astronomical Twilight 6:33 AM EDT 8:15 PM EDT
Moon 11:12 AM EDT (10/29) 9:19 PM EDT (10/29)
Length of Visible Light 11h 42m
Length of Day
10h 50m
Waxing Crescent, 11% of the Moon is Illuminated
Oct 29
Waxing Crescent
Nov 2
First Quarter
Nov 10
Full
Nov 18
Last Quarter
Nov 25
New

Hourly Weather History & Observations

Time (EDT) Temp. Windchill Dew Point Humidity Pressure Visibility Wind Dir Wind Speed Gust Speed Precip Events Conditions
12:53 AM 45.0 °F 40.1 °F 39.9 °F 82% 30.06 in 10.0 mi NNW 9.2 mph - 0.00 in   Light Drizzle
1:53 AM 44.6 °F 40.7 °F 39.2 °F 81% 30.07 in 10.0 mi NNW 6.9 mph - N/A   Overcast
2:53 AM 45.0 °F 40.1 °F 39.0 °F 80% 30.09 in 10.0 mi NW 9.2 mph - N/A   Overcast
3:40 AM 44.6 °F 40.7 °F 39.2 °F 81% 30.09 in 10.0 mi NW 6.9 mph - N/A   Overcast
3:53 AM 44.1 °F 41.5 °F 39.0 °F 82% 30.09 in 10.0 mi NW 4.6 mph - N/A   Mostly Cloudy
4:53 AM 42.1 °F 35.7 °F 36.0 °F 79% 30.11 in 10.0 mi NNW 11.5 mph - N/A   Partly Cloudy
5:53 AM 41.0 °F 37.1 °F 35.1 °F 79% 30.12 in 10.0 mi NNW 5.8 mph - N/A   Partly Cloudy
6:53 AM 39.0 °F 36.8 °F 35.1 °F 86% 30.13 in 10.0 mi NW 3.5 mph - N/A   Clear
7:53 AM 39.0 °F 35.7 °F 34.0 °F 82% 30.12 in 10.0 mi NNW 4.6 mph - N/A   Clear
8:53 AM 42.1 °F 36.6 °F 36.0 °F 79% 30.13 in 10.0 mi North 9.2 mph - N/A   Clear
9:53 AM 45.0 °F 40.1 °F 36.0 °F 71% 30.16 in 10.0 mi North 9.2 mph - N/A   Clear
10:53 AM 48.0 °F - 36.0 °F 63% 30.17 in 10.0 mi North 6.9 mph - N/A   Clear
11:53 AM 51.1 °F - 36.0 °F 56% 30.18 in 10.0 mi NNW 8.1 mph - N/A   Partly Cloudy
12:53 PM 55.0 °F - 34.0 °F 45% 30.17 in 10.0 mi North 10.4 mph - N/A   Partly Cloudy
1:53 PM 55.9 °F - 34.0 °F 44% 30.15 in 10.0 mi Variable 5.8 mph - N/A   Scattered Clouds
2:53 PM 59.0 °F - 30.0 °F 33% 30.12 in 10.0 mi North 17.3 mph 24.2 mph N/A   Scattered Clouds
3:53 PM 59.0 °F - 28.0 °F 31% 30.11 in 10.0 mi North 13.8 mph - N/A   Scattered Clouds
4:53 PM 57.9 °F - 30.0 °F 35% 30.12 in 10.0 mi NW 12.7 mph - N/A   Partly Cloudy
5:53 PM 57.0 °F - 30.9 °F 37% 30.13 in 10.0 mi NNW 10.4 mph - N/A   Partly Cloudy
6:53 PM 53.6 °F - 30.2 °F 41% 30.13 in 10.0 mi NNW 9.2 mph - N/A   Clear
7:53 PM 46.4 °F 43.5 °F 35.6 °F 66% 30.16 in 10.0 mi NNW 5.8 mph - N/A   Clear
8:53 PM 46.0 °F 43.9 °F 34.0 °F 63% 30.17 in 10.0 mi NW 4.6 mph - N/A   Clear
9:53 PM 44.1 °F - 36.0 °F 73% 30.17 in 10.0 mi Calm Calm - N/A   Clear
10:53 PM 43.0 °F - 36.0 °F 76% 30.19 in 10.0 mi Calm Calm - N/A   Clear
11:53 PM 41.0 °F - 36.0 °F 82% 30.19 in 10.0 mi Calm Calm - N/A   Clear